EW9423 Weather Reports


time (UTC)temp
C
wind
direction
speed
KPH
gust
KPH
rain 1hr
cm
rain 24hr
cm
rain mn
cm
humidity
%
barometer
mb
20260507192014 10 102 1.6 9.7 0.00 0.00 0.00 63 1020.0
20260507191015 10 103 1.6 6.4 0.00 0.00 0.00 63 1019.9
20260507190017 10 105 1.6 4.8 0.00 0.00 0.00 61 1019.8
20260507185017 10 99 1.6 6.4 0.00 0.00 0.00 61 1019.7
20260507184017 11 106 3.2 6.4 0.00 0.00 0.00 60 1019.6
20260507183017 11 96 3.2 11.3 0.00 0.00 0.00 59 1019.6
20260507182037 11 108 3.2 9.7 0.00 0.00 0.00 57 1019.6
20260507181017 11 98 3.2 11.3 0.00 0.00 0.00 56 1019.6
20260507180017 12 120 3.2 14.5 0.00 0.00 0.00 55 1019.4
20260507175037 12 111 3.2 11.3 0.00 0.00 0.00 54 1019.4
20260507174017 12 117 3.2 9.7 0.00 0.00 0.00 54 1019.3
20260507173017 12 128 4.8 14.5 0.00 0.00 0.00 52 1019.3
20260507172017 12 103 4.8 16.1 0.00 0.00 0.00 50 1019.2
20260507171017 12 123 6.4 14.5 0.00 0.00 0.00 53 1019.1
20260507170017 12 114 3.2 9.7 0.00 0.00 0.00 51 1019.0
20260507165017 12 102 3.2 8.0 0.00 0.00 0.00 49 1019.0
20260507164017 12 113 3.2 11.3 0.00 0.00 0.00 48 1018.9
20260507163017 12 101 4.8 12.9 0.00 0.00 0.00 46 1018.9
20260507162017 13 105 4.8 12.9 0.00 0.00 0.00 46 1018.9
20260507161017 13 115 4.8 16.1 0.00 0.00 0.00 44 1018.9
20260507160017 13 103 6.4 14.5 0.00 0.00 0.00 40 1018.7
20260507155037 13 99 6.4 16.1 0.00 0.00 0.00 42 1018.7
20260507154017 13 77 3.2 12.9 0.00 0.00 0.00 40 1018.6
20260507153017 13 84 4.8 16.1 0.00 0.00 0.00 43 1018.5
20260507152036 14 97 4.8 12.9 0.00 0.00 0.00 45 1018.4
20260507151017 13 121 3.2 11.3 0.00 0.00 0.00 47 1018.3
20260507150017 13 127 3.2 9.7 0.00 0.00 0.00 48 1018.4
20260507145017 13 140 3.2 11.3 0.00 0.00 0.00 46 1018.4
20260507144016 14 135 3.2 9.7 0.00 0.00 0.00 47 1018.4
20260507143017 14 99 1.6 9.7 0.00 0.00 0.00 43 1018.3
20260507142018 15 81 1.6 9.7 0.00 0.00 0.00 40 1018.3
20260507141017 16 91 3.2 11.3 0.00 0.00 0.00 40 1018.3
20260507140017 15 120 1.6 9.7 0.00 0.00 0.00 44 1018.2
20260507135017 16 118 1.6 6.4 0.00 0.00 0.00 39 1018.2
20260507134017 16 144 3.2 11.3 0.00 0.00 0.00 38 1018.3
20260507133036 16 151 3.2 11.3 0.00 0.00 0.00 39 1018.3
20260507132016 16 118 3.2 8.0 0.00 0.00 0.00 39 1018.2
20260507131017 17 86 3.2 12.9 0.00 0.00 0.00 34 1018.1
20260507130016 17 150 4.8 14.5 0.00 0.00 0.00 38 1018.2
20260507125057 17 238 1.6 9.7 0.00 0.00 0.00 32 1018.2
20260507124016 16 189 3.2 9.7 0.00 0.00 0.00 32 1018.1
20260507123016 16 312 1.6 9.7 0.00 0.00 0.00 32 1018.1
20260507122016 16 278 1.6 8.0 0.00 0.00 0.00 33 1018.1
20260507121016 16 344 1.6 12.9 0.00 0.00 0.00 32 1018.1
20260507120016 16 337 1.6 9.7 0.00 0.00 0.00 31 1018.1
20260507115016 16 52 3.2 8.0 0.00 0.00 0.00 30 1018.0
20260507114017 16 15 1.6 6.4 0.00 0.00 0.00 32 1018.1
20260507113016 16 334 1.6 12.9 0.00 0.00 0.00 32 1018.1
20260507112017 16 337 3.2 12.9 0.00 0.00 0.00 32 1018.3
20260507111016 16 351 1.6 4.8 0.00 0.00 0.00 32 1018.3
20260507110016 16 163 3.2 8.0 0.00 0.00 0.00 35 1018.3
20260507105016 15 208 3.2 8.0 0.00 0.00 0.00 33 1018.3
20260507104017 15 317 1.6 6.4 0.00 0.00 0.00 30 1018.3
20260507103016 15 116 1.6 4.8 0.00 0.00 0.00 29 1018.2
20260507102036 15 116 0.0 6.4 0.00 0.00 0.00 30 1018.1
20260507101016 15 172 1.6 4.8 0.00 0.00 0.00 30 1018.0
20260507100016 15 182 3.2 8.0 0.00 0.00 0.00 31 1017.9
20260507095016 14 169 3.2 8.0 0.00 0.00 0.00 33 1017.9
20260507094016 13 275 1.6 4.8 0.00 0.00 0.00 27 1017.8
20260507093016 14 322 1.6 6.4 0.00 0.00 0.00 28 1017.8
20260507092016 15 221 3.2 8.0 0.00 0.00 0.00 27 1017.8
20260507091016 15 142 1.6 8.0 0.00 0.00 0.00 31 1017.8
20260507090016 14 151 1.6 8.0 0.00 0.00 0.00 35 1017.8
20260507085017 13 172 1.6 8.0 0.00 0.00 0.00 36 1017.7
20260507084016 13 173 3.2 6.4 0.00 0.00 0.00 36 1017.7
20260507083016 13 136 1.6 4.8 0.00 0.00 0.00 38 1017.8
20260507082016 13 30 0.0 3.2 0.00 0.00 0.00 36 1017.7
20260507081057 12 336 0.0 4.8 0.00 0.00 0.00 35 1017.6
20260507080016 11 322 0.0 4.8 0.00 0.00 0.00 39 1017.5
20260507075036 12 332 1.6 6.4 0.00 0.00 0.00 40 1017.3
20260507074016 12 323 1.6 6.4 0.00 0.00 0.00 42 1017.3
20260507073016 11 317 1.6 4.8 0.00 0.00 0.00 47 1017.3
20260507072016 11 300 1.6 4.8 0.00 0.00 0.00 45 1017.3
20260507071016 11 292 0.0 6.4 0.00 0.00 0.00 45 1017.2
20260507070016 11 319 0.0 3.2 0.00 0.00 0.00 44 1017.2
20260507065016 11 348 0.0 3.2 0.00 0.00 0.00 49 1017.1
20260507064016 10 320 1.6 4.8 0.00 0.00 0.00 46 1017.2
20260507063016 10 320 0.0 6.4 0.00 0.00 0.00 58 1017.0
20260507062016 10 320 0.0 3.2 0.00 0.00 0.00 62 1017.0
20260507061016 10 328 0.0 4.8 0.00 0.00 0.00 63 1016.9
20260507060016 8 0 0.0 0.0 0.00 0.00 0.00 75 1016.9
20260507055016 6 242 0.0 3.2 0.00 0.00 0.00 80 1016.8
20260507054016 5 340 0.0 1.6 0.00 0.00 0.00 86 1016.6
20260507053016 3 0 0.0 1.6 0.00 0.00 0.00 89 1016.5
20260507052016 2 0 0.0 0.0 0.00 0.00 0.00 90 1016.3
20260507051036 1 0 0.0 0.0 0.00 0.00 0.00 90 1016.2
20260507050056 1 0 0.0 0.0 0.00 0.00 0.00 91 1016.1
20260507045016 0 0 0.0 0.0 0.00 0.00 0.00 90 1016.2
20260507044016 0 0 0.0 0.0 0.00 0.00 0.00 90 1016.1
20260507043036 0 0 0.0 1.6 0.00 0.00 0.00 89 1016.0
20260507042016 0 0 0.0 1.6 0.00 0.00 0.00 89 1016.0
20260507041015 0 0 0.0 0.0 0.00 0.00 0.00 88 1015.9
20260507040016 0 0 0.0 0.0 0.00 0.00 0.00 88 1015.8
20260507035036 0 0 0.0 0.0 0.00 0.00 0.00 87 1015.7
20260507034016 0 0 0.0 0.0 0.00 0.00 0.00 87 1015.7
20260507033018 0 0 0.0 0.0 0.00 0.00 0.00 86 1015.6
20260507032018 0 0 0.0 0.0 0.00 0.00 0.00 86 1015.6
20260507031018 0 0 0.0 0.0 0.00 0.00 0.00 86 1015.6
20260507030018 0 0 0.0 0.0 0.00 0.00 0.00 86 1015.6
20260507025056 0 0 0.0 0.0 0.00 0.00 0.00 85 1015.6
20260507024017 1 0 0.0 0.0 0.00 0.00 0.00 85 1015.5
20260507023018 1 0 0.0 0.0 0.00 0.00 0.00 85 1015.5
20260507022038 1 0 0.0 0.0 0.00 0.00 0.00 85 1015.5
20260507021018 1 0 0.0 0.0 0.00 0.00 0.00 85 1015.4
20260507020037 1 0 0.0 0.0 0.00 0.00 0.00 85 1015.4
20260507015018 1 0 0.0 0.0 0.00 0.00 0.00 84 1015.4
20260507014038 1 0 0.0 0.0 0.00 0.00 0.00 84 1015.3
20260507013018 1 0 0.0 0.0 0.00 0.00 0.00 84 1015.3
20260507012018 1 0 0.0 0.0 0.00 0.00 0.00 84 1015.3
20260507011018 1 0 0.0 0.0 0.00 0.00 0.00 85 1015.2
20260507010018 1 0 0.0 0.0 0.00 0.00 0.00 85 1015.2
20260507005018 1 0 0.0 0.0 0.00 0.00 0.00 85 1015.2
20260507004016 1 0 0.0 0.0 0.00 0.00 0.00 85 1015.2
20260507003015 1 0 0.0 0.0 0.00 0.00 0.00 84 1015.2
20260507002015 1 0 0.0 3.2 0.00 0.00 0.00 84 1015.1
20260507001015 1 0 0.0 0.0 0.00 0.00 0.00 83 1015.1
20260507000015 1 0 0.0 0.0 0.00 0.00 0.00 81 1015.1
20260506235015 1 0 0.0 0.0 0.00 0.00 0.00 80 1015.0
20260506234015 1 0 0.0 0.0 0.00 0.00 0.00 80 1015.0
20260506233015 2 0 0.0 0.0 0.00 0.00 0.00 79 1015.1
20260506232015 2 0 0.0 0.0 0.00 0.00 0.00 79 1015.1
20260506231035 2 0 0.0 0.0 0.00 0.00 0.00 78 1015.2
20260506230015 2 0 0.0 0.0 0.00 0.00 0.00 76 1015.1
20260506225015 3 0 0.0 0.0 0.00 0.00 0.00 75 1015.0
20260506224015 3 0 0.0 0.0 0.00 0.00 0.00 74 1015.0
20260506223015 3 0 0.0 0.0 0.00 0.00 0.00 73 1015.0
20260506222015 3 0 0.0 0.0 0.00 0.00 0.00 72 1014.9
20260506221015 4 0 0.0 0.0 0.00 0.00 0.00 71 1014.9
20260506220015 5 0 0.0 0.0 0.00 0.00 0.00 71 1014.9
20260506215015 5 0 0.0 3.2 0.00 0.00 0.00 70 1014.8
20260506214015 5 324 0.0 3.2 0.00 0.00 0.00 68 1014.8
20260506213018 5 324 0.0 4.8 0.00 0.00 0.00 68 1014.7
20260506212037 5 0 0.0 0.0 0.00 0.00 0.00 67 1014.6
20260506211018 5 0 0.0 0.0 0.00 0.00 0.00 67 1014.5
20260506210018 5 0 0.0 3.2 0.00 0.00 0.00 66 1014.5
20260506205018 5 324 0.0 3.2 0.00 0.00 0.00 66 1014.4
20260506204018 6 0 0.0 1.6 0.00 0.00 0.00 65 1014.4
20260506203037 6 324 0.0 3.2 0.00 0.00 0.00 65 1014.4
20260506202017 6 324 0.0 3.2 0.00 0.00 0.00 64 1014.3
20260506201018 6 324 0.0 4.8 0.00 0.00 0.00 63 1014.3
20260506200017 6 324 0.0 3.2 0.00 0.00 0.00 62 1014.3
20260506195037 6 323 1.6 4.8 0.00 0.00 0.00 61 1014.2
20260506194037 7 324 1.6 4.8 0.00 0.00 0.00 60 1014.2
20260506193017 7 318 1.6 6.4 0.00 0.00 0.00 59 1014.1